This demonstration page uses our WeatherBlox Daily Observations layout. Learn more.

Left ArrowRight Arrow

39.08367, -84.50855

Hourly Observations for April 29, 2022

Temp ( °F °C ) Dew Point ( °F °C ) Humidity (%) Winds ( mph kmh ) Pressure ( in mb ) Visibility ( mi km ) Precip ( " mm )
12:53 am 00:53 Cloudy 54 12.2 36 2.2 51 51 Calm 30.16 1021 10 16 0.00 0.00
1:53 am 01:53 Cloudy 53 11.7 37 2.8 55 55 NNE 5 7 30.15 1021 10 16 0.00 0.00
2:53 am 02:53 Cloudy 51 10.6 41 5 69 69 NNE 5 7 30.15 1021 10 16 0.00 0.00
3:53 am 03:53 Cloudy 51 10.6 41 5 69 69 NE 7 11 30.14 1021 10 16 0.00 0.00
4:53 am 04:53 Cloudy 51 10.6 39 3.9 64 64 NNE 3 6 30.14 1021 10 16 0.00 0.00
5:53 am 05:53 Cloudy 51 10.6 37 2.8 59 59 NE 5 7 30.16 1021 10 16 0.00 0.00
6:53 am 06:53 Cloudy 52 11.1 36 2.2 55 55 NE 6 9 30.17 1022 10 16 0.00 0.00
7:53 am 07:53 Cloudy 51 10.6 37 2.8 59 59 NE 7 11 30.18 1022 10 16 0.00 0.00
8:53 am 08:53 Cloudy 53 11.7 36 2.2 52 52 NE 5 7 30.19 1022 10 16 0.00 0.00
9:53 am 09:53 Cloudy 54 12.2 34 1.1 47 47 ENE 7 11 30.19 1022 10 16 0.00 0.00
10:53 am 10:53 Cloudy 57 13.9 34 1.1 42 42 E 8 13 30.17 1022 10 16 0.00 0.00
11:53 am 11:53 Cloudy 60 15.6 35 1.7 39 39 E 9 15 30.15 1021 10 16 0.00 0.00
12:53 pm 12:53 Mostly Cloudy 65 18.3 41 5 42 42 VRB 7 11 30.13 1020 10 16 0.00 0.00
1:53 pm 13:53 Partly Cloudy 67 19.4 42 5.6 41 41 E 7 11 30.11 1020 10 16 0.00 0.00
2:53 pm 14:53 Mostly Sunny 70 21.1 43 6.1 38 38 E 9 15 30.09 1019 10 16 0.00 0.00
3:53 pm 15:53 Sunny 71 21.7 43 6.1 36 36 NE 12 19 30.06 1018 10 16 0.00 0.00
4:53 pm 16:53 Mostly Cloudy 70 21.1 43 6.1 38 38 E 7 11 30.05 1018 10 16 0.00 0.00
5:53 pm 17:53 Cloudy 70 21.1 44 6.7 39 39 ESE 5 7 30.04 1017 10 16 0.00 0.00
6:53 pm 18:53 Mostly Cloudy 70 21.1 44 6.7 39 39 ENE 7 11 30.02 1017 10 16 0.00 0.00
7:53 pm 19:53 Cloudy 66 18.9 46 7.8 49 49 NE 7 11 30.01 1016 10 16 0.00 0.00
8:53 pm 20:53 Cloudy 66 18.9 43 6.1 43 43 ENE 5 7 30.02 1017 10 16 0.00 0.00
9:53 pm 21:53 Cloudy 64 17.8 45 7.2 50 50 NE 6 9 30.04 1017 10 16 0.00 0.00
10:53 pm 22:53 Cloudy 64 17.8 41 5 43 43 E 7 11 30.04 1017 10 16 0.00 0.00
11:53 pm 23:53 Cloudy 63 17.2 39 3.9 41 41 ENE 5 7 30.04 1017 10 16 0.00 0.00

Powered by AerisWeather